Regional Weather Roundup
Issued by NWS

Home | Current Version | Previous Version | Text Only | Print | Product List | Glossary On
Versions: 1 2 3 4 5 6 7 8 9 10 11 12 13 14 15 16 17 18 19 20 21 22 23 24 25 26 27 28 29 30 31 32 33 34 35 36 37 38 39 40 41 42 43 44 45 46 47 48 49 50
000
ASUS43 KOAX 011102
RWRNE

WEATHER ROUNDUP FOR NEBRASKA
NATIONAL WEATHER SERVICE OMAHA NE
500 AM CST SUN FEB 01 2015

NOTES: SATELLITE DATA IS BEING USED TO AUGMENT CLOUD COVER ABOVE
       12000 FEET.
       "FAIR" INDICATES FEW OR NO CLOUDS BELOW 12,000 FEET WITH NO
       SIGNIFICANT WEATHER AND/OR OBSTRUCTIONS TO VISIBILITY.

  * THESE STATIONS DO NOT REPORT WEATHER SUCH AS RAIN...SNOW OR FOG.

NEZ001>004-019>022-054>056-011200-
NEBRASKA PANHANDLE

CITY           SKY/WX    TMP DP  RH WIND       PRES   REMARKS
SCOTTSBLUFF    CLOUDY    21  16  81 NW13      30.13R WCI   9
ALLIANCE       FLURRIES  12   7  80 N18       30.10S WCI  -6
CHADRON        LGT SNOW  10   5  80 N13       30.21R WCI  -5
SIDNEY         CLOUDY    18  14  84 N17G25    30.07R WCI   3
$$

NEZ057>060-069>072-079>082-011200-
SOUTHWEST NEBRASKA

CITY           SKY/WX    TMP DP  RH WIND       PRES   REMARKS
NORTH PLATTE   CLOUDY    12   6  77 N16G29    30.08R WCI  -5
IMPERIAL       CLOUDY    17  11  77 N22       30.07R WCI   0
MCCOOK         CLOUDY    18  12  77 N18       30.04R WCI   2
$$

NEZ005>010-023>029-035>040-094-011200-
NORTH CENTRAL NEBRASKA

CITY           SKY/WX    TMP DP  RH WIND       PRES   REMARKS
VALENTINE      LGT SNOW   6   1  80 N16G28    30.18R WCI -12
BROKEN BOW     LGT SNOW  10   5  80 N31G43    30.04R VSB 3/4 WCI -13
ORD            LGT SNOW  10   5  80 N28G35    30.04R VSB 3/4 WCI -12
$$

NEZ041-046>049-061>064-073>077-083>087-011200-
SOUTH CENTRAL NEBRASKA

CITY           SKY/WX    TMP DP  RH WIND       PRES   REMARKS
GRAND ISLAND   LGT SNOW  15  11  83 N35       29.96R VSB 1   WCI  -7
AURORA         LGT SNOW  18  16  93 N29G40    29.92R VSB 1   WCI  -1
HASTINGS       LGT SNOW  16  13  88 N33G46    29.93R VSB 3/4 WCI  -5
KEARNEY *      CLOUDY    14  10  85 N35G41    29.98R VSB 1   WCI  -8
YORK           HVY SNOW  23  21  93 N20G26    29.88R WCI   8
$$

NEZ011>018-030>034-042>045-011200-
NORTHEAST NEBRASKA

CITY           SKY/WX    TMP DP  RH WIND       PRES   REMARKS
NORFOLK        LGT SNOW  21  17  84 N30G40    29.96R FOG     WCI   3
ALBION         LGT SNOW  14   9  81 N22G33    29.98R WCI  -5
BLAIR          LGT SNOW  31  30  94 N17G23    29.80S VSB 1   WCI  20
FREMONT        LGT SNOW  28  27  96 N12G18    29.86R VSB 1   WCI  18
TEKAMAH        LGT SNOW  28  25  88 N24G30    29.88R VSB 1   WCI  14
$$

NEZ050>053-065>068-078-088>093-011200-
SOUTHEAST NEBRASKA

CITY           SKY/WX    TMP DP  RH WIND       PRES   REMARKS
LINCOLN        LGT SNOW  30  28  92 N23       29.81R VSB 3/4 WCI  17
OMAHA EPPLEY   LGT SNOW  33  32  96 N10       29.80F FOG     WCI  25
FALLS CITY     LGT SNOW  32  31  96 N5        29.74S FOG     WCI  27
$$

NEZ044-045-051>053-067-011200-
OMAHA AREA

CITY           SKY/WX    TMP DP  RH WIND       PRES   REMARKS
OMAHA EPPLEY   LGT SNOW  33  32  96 N10       29.80F FOG     WCI  25
BLAIR          LGT SNOW  31  30  94 N17G23    29.80S VSB 1   WCI  20
FREMONT        LGT SNOW  28  27  96 N12G18    29.86R VSB 1   WCI  18
OFFUTT AFB     LGT SNOW  33  32  96 N6        29.78S FOG     WCI  27
$$


USA.gov is the U.S. government's official web portal to all federal, state and local government web resources and services.